Regional Weather Roundup
Issued by NWS

Home | Current Version | Previous Version | Graphics & Text | Print | Product List | Glossary On
Versions: 1 2 3 4 5 6 7 8 9 10 11 12 13 14 15 16 17 18 19 20 21 22 23 24 25 26 27 28 29 30 31 32 33 34 35 36 37 38 39 40 41 42 43 44 45 46 47 48 49 50
000
ASUS43 KBIS 181620
RWRND

NORTH DAKOTA REGIONAL WEATHER ROUNDUP
NATIONAL WEATHER SERVICE BISMARCK ND
1100 AM CDT SAT APR 18 2015

NOTE: "FAIR" INDICATES FEW OR NO CLOUDS BELOW 12,000 FEET WITH NO
SIGNIFICANT WEATHER AND/OR OBSTRUCTIONS TO VISIBILITY.


NDZ001>003-009>011-017-181700-
NORTHWEST NORTH DAKOTA

CITY           SKY/WX    TMP DP  RH WIND       PRES   REMARKS
WILLISTON      SUNNY     60  33  36 S6        29.94F
MINOT          SUNNY     59  27  29 SE10      29.97F
MINOT AFB      SUNNY     58  30  34 S15       29.96F
$$

NDZ018>021-031>035-040>046-181700-
SOUTHWEST NORTH DAKOTA

CITY           SKY/WX    TMP DP  RH WIND       PRES   REMARKS
BISMARCK       CLOUDY    50  30  46 SE6       30.02F
DICKINSON      SUNNY     62  35  36 SW7       29.96F
GARRISON         N/A     56  28  34 S12       29.99F
HETTINGER ARPT CLOUDY    49  38  65 SE5       30.02R
$$

NDZ004>008-012>016-024-026-027-054-181700-
NORTHEAST NORTH DAKOTA

CITY           SKY/WX    TMP DP  RH WIND       PRES   REMARKS
GRAND FORKS    MOSUNNY   54  32  43 SE8       30.08F
GRND FRKS AFB  SUNNY     55  31  40 S7        30.07F
DEVILS LAKE    SUNNY     54  32  43 SE12      30.03F
$$

NDZ022-023-025-028>030-036>039-047>053-181700-
SOUTHEAST NORTH DAKOTA

CITY           SKY/WX    TMP DP  RH WIND       PRES   REMARKS
FARGO          MOSUNNY   62  30  29 SE12      30.06F
JAMESTOWN      PTSUNNY   55  27  34 SE14      30.02F
$$




USA.gov is the U.S. government's official web portal to all federal, state and local government web resources and services.